Location: Chippewa Lake
(41.0698°N, 81.9010°W)
Time: 01:50:54
(UTC+00:00)

Cosmos 1553 Rocket - Pass Details

Date: 09 May 2021
Orbit: 942 x 1007 km, 82.9° (Epoch: 24 June)

Event Time Altitude Azimuth Distance (km) Brightness Sun altitude
Rises 01:33:55 0° 186° (S) 3,600 6.7 -10.9°
Reaches altitude 10° 01:36:22 10° 186° (S) 2,665 6.0 -11.3°
Maximum altitude 01:42:29 89° 279° (W) 965 4.0 -12.3°
Drops below altitude 10° 01:48:43 10° 7° (N) 2,722 6.8 -13.2°
Sets 01:51:15 0° 8° (N) 3,683 7.5 -13.6°
